User: anonymous   Login
Location: Caltech
(34.1382°N, 118.1253°W)
Time: 12:16:26
(UTC-07:00)
Language:

BREEZE M DEB (TANK) - Orbit

View from above orbital plane
View from above orbital plane
View from above satellite
View from above satellite

Ground track
Ground track

The orbit data is extracted from the following two-line orbital elements,

1 33437U 08057B   15182.21762363  .00002076  00000-0  37495-3 0  9993
2 33437 049.5526 138.6678 5018531 275.1551 287.3528 05.57925503133745
Epoch (UTC): 01 July 2015 05:13:22
Eccentricity: 0.5018531
inclination: 49.5526°
perigee height: 311 km
apogee height: 13789 km
right ascension of ascending node: 138.6678°
argument of perigee: 275.1551°
revolutions per day: 5.57925503
mean anomaly at epoch: 287.3528°
orbit number at epoch: 13374

The dashed part of the orbit path shows where the satellite is in the earth's shadow,  

DLR